This is the latest recevied weather packets stored in our database for station/object WP3OF-1. If no packets are shown the sender has not sent any weather packets the latest 10 day(s).
| Time | Temp. | Humidity | Pressure | Rain* | Wind** | Luminosity | Snow |
|---|---|---|---|---|---|---|---|
| 1777993641 | 28.33° C | 79% | 1018.4 hPa | 0 mm | - | - | - |
| 1777993338 | 28.89° C | 79% | 1018.7 hPa | 0 mm | - | - | - |
| 1777993038 | 28.33° C | 79% | 1018.7 hPa | 0 mm | - | - | - |
| 1777992737 | 28.33° C | 77% | 1018.5 hPa | 0 mm | - | - | - |
| 1777992434 | 28.33° C | 78% | 1018.9 hPa | 0 mm | - | - | - |
| 1777992132 | 28.33° C | 78% | 1018.8 hPa | 0 mm | - | - | - |
| 1777991829 | 28.33° C | 78% | 1018.9 hPa | 0 mm | - | - | - |
| 1777991526 | 28.33° C | 79% | 1018.7 hPa | 0 mm | - | - | - |
| 1777991223 | 28.89° C | 78% | 1018.4 hPa | 0 mm | - | - | - |
| 1777990920 | 28.33° C | 79% | 1018.7 hPa | 0 mm | - | - | - |
| 1777990618 | 28.89° C | 79% | 1018.9 hPa | 0 mm | - | - | - |
| 1777990011 | 27.78° C | 81% | 1018.9 hPa | 0 mm | - | - | - |
| 1777989708 | 27.78° C | 80% | 1018.8 hPa | 0 mm | - | - | - |
| 1777989404 | 28.33° C | 79% | 1018.6 hPa | 0 mm | - | - | - |
| 1777989100 | 27.78° C | 80% | 1018.9 hPa | 0 mm | - | - | - |
| 1777988796 | 27.78° C | 80% | 1018.7 hPa | 0 mm | - | - | - |
| 1777988494 | 28.33° C | 80% | 1018.6 hPa | 0 mm | - | - | - |
| 1777988191 | 28.33° C | 79% | 1018.5 hPa | 0 mm | - | - | - |
| 1777987887 | 27.78° C | 79% | 1018.4 hPa | 0 mm | - | - | - |
| 1777987583 | 27.78° C | 81% | 1018.5 hPa | 0 mm | - | - | - |
| 1777987281 | 27.78° C | 81% | 1018.4 hPa | 0 mm | - | - | - |
| 1777986977 | 27.78° C | 82% | 1018.6 hPa | 0 mm | - | - | - |
| 1777986675 | 27.22° C | 83% | 1018.3 hPa | 0 mm | - | - | - |
| 1777986373 | 27.22° C | 83% | 1018.4 hPa | 0 mm | - | - | - |
| 1777986071 | 27.22° C | 83% | 1018.7 hPa | 0 mm | - | - | - |
* Rain latest hour (hover to see other rain measurements)
** Current wind speed in m/s (hover to see current wind gust speed)